Time,TemperatureF,DewpointF,PressureIn,WindDirection,WindDirectionDegrees,WindSpeedMPH,WindSpeedGustMPH,Humidity,HourlyPrecipIn,Conditions,Clouds,dailyrainin,SoftwareType,DateUTC
2013-07-23 00:02:00,79.0,63.4,29.80,WSW,242,6.0,6.0,59,0.00,,,0.00,Wunderground v.1.15,2013-07-23 05:02:00,
2013-07-23 00:12:00,79.2,62.7,29.81,West,271,6.0,6.0,57,0.00,,,0.00,Wunderground v.1.15,2013-07-23 05:12:00,
2013-07-23 00:22:00,78.7,62.2,29.81,West,263,5.0,6.0,57,0.00,,,0.00,Wunderground v.1.15,2013-07-23 05:22:00,
2013-07-23 00:32:00,78.5,61.5,29.81,WSW,246,4.0,6.0,56,0.00,,,0.00,Wunderground v.1.15,2013-07-23 05:32:00,
2013-07-23 00:42:00,78.2,61.7,29.81,West,269,5.0,5.0,57,0.00,,,0.00,Wunderground v.1.15,2013-07-23 05:42:00,
2013-07-23 00:52:00,77.9,61.9,29.82,West,278,5.0,6.0,58,0.00,,,0.00,Wunderground v.1.15,2013-07-23 05:52:00,
2013-07-23 01:02:00,78.7,63.2,29.82,West,268,12.0,12.0,59,0.00,,,0.00,Wunderground v.1.15,2013-07-23 06:02:00,
2013-07-23 01:12:00,80.4,63.3,29.81,West,266,9.0,9.0,56,0.00,,,0.00,Wunderground v.1.15,2013-07-23 06:12:00,
2013-07-23 01:22:00,79.6,64.0,29.83,WNW,292,6.0,6.0,59,0.00,,,0.00,Wunderground v.1.15,2013-07-23 06:22:00,
2013-07-23 01:32:00,81.0,64.3,29.82,West,264,6.0,7.0,57,0.00,,,0.00,Wunderground v.1.15,2013-07-23 06:32:00,
2013-07-23 01:42:00,80.3,65.1,29.82,WSW,250,6.0,6.0,60,0.00,,,0.00,Wunderground v.1.15,2013-07-23 06:42:00,
2013-07-23 01:52:00,79.5,65.3,29.82,West,270,3.0,3.0,62,0.00,,,0.00,Wunderground v.1.15,2013-07-23 06:52:00,
2013-07-23 02:02:00,79.6,65.4,29.81,SSW,208,4.0,6.0,62,0.00,,,0.00,Wunderground v.1.15,2013-07-23 07:02:00,
2013-07-23 02:12:00,80.1,65.9,29.80,SW,215,6.0,6.0,62,0.00,,,0.00,Wunderground v.1.15,2013-07-23 07:12:00,
2013-07-23 02:22:00,80.1,66.8,29.79,WSW,246,5.0,6.0,64,0.00,,,0.00,Wunderground v.1.15,2013-07-23 07:22:00,
2013-07-23 02:32:00,81.0,67.2,29.79,SSW,207,8.0,8.0,63,0.00,,,0.00,Wunderground v.1.15,2013-07-23 07:32:00,
2013-07-23 02:42:00,81.7,67.9,29.79,SW,233,6.0,6.0,63,0.00,,,0.00,Wunderground v.1.15,2013-07-23 07:42:00,
2013-07-23 02:52:00,81.7,68.3,29.78,SW,224,6.0,6.0,64,0.00,,,0.00,Wunderground v.1.15,2013-07-23 07:52:00,
2013-07-23 03:02:00,82.4,68.1,29.78,West,263,5.0,6.0,62,0.00,,,0.00,Wunderground v.1.15,2013-07-23 08:02:00,
2013-07-23 03:12:00,81.6,68.2,29.77,SW,225,7.0,7.0,64,0.00,,,0.00,Wunderground v.1.15,2013-07-23 08:12:00,
2013-07-23 03:22:00,81.2,68.3,29.77,East,98,5.0,6.0,65,0.00,,,0.00,Wunderground v.1.15,2013-07-23 08:22:00,
2013-07-23 03:32:00,80.4,68.4,29.78,ENE,73,10.0,11.0,67,0.00,,,0.00,Wunderground v.1.15,2013-07-23 08:32:00,
2013-07-23 03:42:00,82.8,68.4,29.79,SW,217,8.0,8.0,62,0.00,,,0.00,Wunderground v.1.15,2013-07-23 08:42:00,
2013-07-23 03:52:00,83.4,68.5,29.81,NW,309,5.0,5.0,61,0.00,,,0.00,Wunderground v.1.15,2013-07-23 08:52:00,
2013-07-23 04:02:00,82.7,68.8,29.82,NW,323,2.0,2.0,63,0.00,,,0.00,Wunderground v.1.15,2013-07-23 09:02:00,
2013-07-23 04:12:00,81.1,68.7,29.82,ESE,114,2.0,6.0,66,0.00,,,0.00,Wunderground v.1.15,2013-07-23 09:12:00,
2013-07-23 04:22:00,80.7,68.7,29.82,SW,219,2.0,2.0,67,0.00,,,0.00,Wunderground v.1.15,2013-07-23 09:22:00,
2013-07-23 04:32:00,79.6,68.5,29.82,West,264,1.0,1.0,69,0.00,,,0.00,Wunderground v.1.15,2013-07-23 09:32:00,
2013-07-23 04:42:00,79.1,68.5,29.82,West,266,0.0,6.0,70,0.00,,,0.00,Wunderground v.1.15,2013-07-23 09:42:00,
2013-07-23 04:52:00,78.5,68.7,29.82,North,6,1.0,6.0,72,0.00,,,0.00,Wunderground v.1.15,2013-07-23 09:52:00,
2013-07-23 05:02:00,78.0,68.6,29.83,NW,311,3.0,3.0,73,0.00,,,0.00,Wunderground v.1.15,2013-07-23 10:02:00,
2013-07-23 05:12:00,78.1,68.7,29.83,North,350,1.0,1.0,73,0.00,,,0.00,Wunderground v.1.15,2013-07-23 10:12:00,
2013-07-23 05:22:00,77.7,68.7,29.83,North,350,1.0,6.0,74,0.00,,,0.00,Wunderground v.1.15,2013-07-23 10:22:00,
2013-07-23 05:32:00,77.4,68.9,29.84,NNW,345,2.0,2.0,75,0.00,,,0.00,Wunderground v.1.15,2013-07-23 10:32:00,
2013-07-23 05:42:00,77.1,68.6,29.84,WSW,257,1.0,1.0,75,0.00,,,0.00,Wunderground v.1.15,2013-07-23 10:42:00,
2013-07-23 05:51:00,77.0,69.2,29.83,West,263,1.0,6.0,77,0.00,,,0.00,Wunderground v.1.15,2013-07-23 10:51:00,
2013-07-23 06:01:00,76.1,68.7,29.83,SSE,166,2.0,2.0,78,0.00,,,0.00,Wunderground v.1.15,2013-07-23 11:01:00,
2013-07-23 06:11:00,75.7,68.7,29.83,SW,214,1.0,1.0,79,0.00,,,0.00,Wunderground v.1.15,2013-07-23 11:11:00,
2013-07-23 06:22:00,75.5,68.5,29.83,West,267,2.0,6.0,79,0.00,,,0.00,Wunderground v.1.15,2013-07-23 11:22:00,
2013-07-23 06:32:00,75.4,68.8,29.83,West,264,3.0,6.0,80,0.00,,,0.00,Wunderground v.1.15,2013-07-23 11:32:00,
2013-07-23 06:42:00,75.4,69.9,29.83,SW,228,4.0,4.0,83,0.00,,,0.00,Wunderground v.1.15,2013-07-23 11:42:00,
2013-07-23 06:52:00,75.1,69.6,29.83,SW,217,2.0,6.0,83,0.00,,,0.00,Wunderground v.1.15,2013-07-23 11:52:00,
2013-07-23 07:02:00,75.4,69.5,29.82,SW,214,3.0,6.0,82,0.00,,,0.00,Wunderground v.1.15,2013-07-23 12:02:00,
2013-07-23 07:12:00,76.4,69.8,29.81,SW,221,5.0,6.0,80,0.00,,,0.00,Wunderground v.1.15,2013-07-23 12:12:00,
2013-07-23 07:22:00,77.2,69.8,29.80,SSW,200,5.0,6.0,78,0.00,,,0.00,Wunderground v.1.15,2013-07-23 12:22:00,
2013-07-23 07:32:00,77.1,69.7,29.79,SSE,166,5.0,5.0,78,0.00,,,0.00,Wunderground v.1.15,2013-07-23 12:32:00,
2013-07-23 07:42:00,76.3,70.0,29.77,SE,127,7.0,7.0,81,0.00,,,0.00,Wunderground v.1.15,2013-07-23 12:42:00,
2013-07-23 07:52:00,76.5,69.9,29.80,WSW,242,6.0,6.0,80,0.00,,,0.00,Wunderground v.1.15,2013-07-23 12:52:00,
2013-07-23 08:02:00,77.0,70.0,29.82,WSW,250,5.0,5.0,79,0.00,,,0.00,Wunderground v.1.15,2013-07-23 13:02:00,
2013-07-23 08:12:00,77.2,70.2,29.84,NW,308,3.0,6.0,79,0.00,,,0.00,Wunderground v.1.15,2013-07-23 13:12:00,
2013-07-23 08:22:00,77.4,70.4,29.85,NW,305,2.0,6.0,79,0.00,,,0.00,Wunderground v.1.15,2013-07-23 13:22:00,
2013-07-23 08:32:00,77.2,70.5,29.86,NNW,340,3.0,3.0,80,0.00,,,0.00,Wunderground v.1.15,2013-07-23 13:32:00,
2013-07-23 08:42:00,77.2,70.5,29.86,WNW,293,3.0,3.0,80,0.00,,,0.00,Wunderground v.1.15,2013-07-23 13:42:00,
2013-07-23 08:52:00,77.1,70.5,29.88,NW,315,2.0,6.0,80,0.00,,,0.00,Wunderground v.1.15,2013-07-23 13:52:00,
2013-07-23 09:02:00,77.2,70.9,29.89,WNW,303,6.0,6.0,81,0.00,,,0.00,Wunderground v.1.15,2013-07-23 14:02:00,
2013-07-23 09:12:00,78.2,70.4,29.89,NW,321,4.0,6.0,77,0.00,,,0.00,Wunderground v.1.15,2013-07-23 14:12:00,
2013-07-23 09:22:00,80.2,70.4,29.88,WNW,291,3.0,6.0,72,0.00,,,0.00,Wunderground v.1.15,2013-07-23 14:22:00,
2013-07-23 09:32:00,83.3,68.0,29.88,NNW,328,5.0,6.0,60,0.00,,,0.00,Wunderground v.1.15,2013-07-23 14:32:00,
2013-07-23 09:42:00,81.7,68.8,29.89,NNE,15,13.0,16.0,65,0.00,,,0.00,Wunderground v.1.15,2013-07-23 14:42:00,
2013-07-23 09:52:00,80.3,69.2,29.88,NE,49,15.0,20.0,69,0.00,,,0.00,Wunderground v.1.15,2013-07-23 14:52:00,
2013-07-23 10:02:00,79.9,69.2,29.87,NE,44,16.0,16.0,70,0.00,,,0.00,Wunderground v.1.15,2013-07-23 15:02:00,
2013-07-23 10:12:00,80.5,69.8,29.86,NE,47,14.0,14.0,70,0.00,,,0.00,Wunderground v.1.15,2013-07-23 15:12:00,
2013-07-23 10:21:00,81.0,69.4,29.86,NE,36,16.0,16.0,68,0.00,,,0.00,Wunderground v.1.15,2013-07-23 15:21:00,
2013-07-23 10:31:00,81.7,69.7,29.86,ESE,103,13.0,13.0,67,0.00,,,0.00,Wunderground v.1.15,2013-07-23 15:31:00,
2013-07-23 10:42:00,82.2,69.3,29.85,ENE,63,12.0,16.0,65,0.00,,,0.00,Wunderground v.1.15,2013-07-23 15:42:00,
2013-07-23 10:52:00,82.8,69.8,29.86,East,89,11.0,11.0,65,0.00,,,0.00,Wunderground v.1.15,2013-07-23 15:52:00,
2013-07-23 11:02:00,83.4,69.9,29.85,ESE,103,12.0,12.0,64,0.00,,,0.00,Wunderground v.1.15,2013-07-23 16:02:00,
2013-07-23 11:12:00,83.7,70.2,29.84,ENE,68,11.0,12.0,64,0.00,,,0.00,Wunderground v.1.15,2013-07-23 16:12:00,
2013-07-23 11:22:00,84.4,70.0,29.84,ESE,116,11.0,11.0,62,0.00,,,0.00,Wunderground v.1.15,2013-07-23 16:22:00,
2013-07-23 11:32:00,85.0,70.0,29.84,East,84,10.0,13.0,61,0.00,,,0.00,Wunderground v.1.15,2013-07-23 16:32:00,
2013-07-23 11:42:00,85.5,71.0,29.84,ESE,105,10.0,10.0,62,0.00,,,0.00,Wunderground v.1.15,2013-07-23 16:42:00,
2013-07-23 11:52:00,86.3,71.7,29.84,ESE,108,10.0,14.0,62,0.00,,,0.00,Wunderground v.1.15,2013-07-23 16:52:00,
2013-07-23 12:02:00,86.3,70.8,29.85,East,98,12.0,12.0,60,0.00,,,0.00,Wunderground v.1.15,2013-07-23 17:02:00,
2013-07-23 12:12:00,87.2,71.1,29.85,East,93,10.0,11.0,59,0.00,,,0.00,Wunderground v.1.15,2013-07-23 17:12:00,
2013-07-23 12:22:00,87.3,70.7,29.85,East,101,11.0,12.0,58,0.00,,,0.00,Wunderground v.1.15,2013-07-23 17:22:00,
2013-07-23 12:32:00,88.0,71.9,29.85,ENE,78,10.0,10.0,59,0.00,,,0.00,Wunderground v.1.15,2013-07-23 17:32:00,
2013-07-23 12:42:00,88.6,70.9,29.85,ESE,107,10.0,11.0,56,0.00,,,0.00,Wunderground v.1.15,2013-07-23 17:42:00,
2013-07-23 12:52:00,88.5,71.3,29.84,ESE,105,10.0,11.0,57,0.00,,,0.00,Wunderground v.1.15,2013-07-23 17:52:00,
2013-07-23 13:02:00,88.4,71.2,29.84,SE,136,11.0,11.0,57,0.00,,,0.00,Wunderground v.1.15,2013-07-23 18:02:00,
2013-07-23 13:12:00,88.8,71.1,29.84,ESE,117,11.0,11.0,56,0.00,,,0.00,Wunderground v.1.15,2013-07-23 18:12:00,
2013-07-23 13:21:00,89.2,72.5,29.84,East,100,10.0,14.0,58,0.00,,,0.00,Wunderground v.1.15,2013-07-23 18:21:00,
2013-07-23 13:32:00,89.0,72.3,29.83,SE,125,11.0,13.0,58,0.00,,,0.00,Wunderground v.1.15,2013-07-23 18:32:00,
2013-07-23 13:42:00,89.4,72.7,29.83,East,87,11.0,11.0,58,0.00,,,0.00,Wunderground v.1.15,2013-07-23 18:42:00,
2013-07-23 14:12:00,90.4,72.6,29.83,East,89,10.0,10.0,56,0.00,,,0.00,Wunderground v.1.15,2013-07-23 19:12:00,
2013-07-23 14:22:00,90.6,72.2,29.84,ESE,106,10.0,10.0,55,0.00,,,0.00,Wunderground v.1.15,2013-07-23 19:22:00,
2013-07-23 14:32:00,91.0,72.0,29.83,East,85,9.0,9.0,54,0.00,,,0.00,Wunderground v.1.15,2013-07-23 19:32:00,
2013-07-23 14:42:00,91.1,73.2,29.83,East,91,10.0,10.0,56,0.00,,,0.00,Wunderground v.1.15,2013-07-23 19:42:00,
2013-07-23 14:52:00,91.3,72.3,29.83,ENE,77,11.0,11.0,54,0.00,,,0.00,Wunderground v.1.15,2013-07-23 19:52:00,
2013-07-23 15:01:00,91.3,72.3,29.82,East,86,11.0,11.0,54,0.00,,,0.00,Wunderground v.1.15,2013-07-23 20:01:00,
2013-07-23 15:12:00,92.0,73.0,29.82,East,79,10.0,16.0,54,0.00,,,0.00,Wunderground v.1.15,2013-07-23 20:12:00,
2013-07-23 15:22:00,91.9,72.3,29.81,ESE,120,12.0,14.0,53,0.00,,,0.00,Wunderground v.1.15,2013-07-23 20:22:00,
2013-07-23 15:32:00,91.8,72.2,29.81,ESE,103,12.0,12.0,53,0.00,,,0.00,Wunderground v.1.15,2013-07-23 20:32:00,
2013-07-23 15:42:00,91.9,72.3,29.80,East,97,11.0,11.0,53,0.00,,,0.00,Wunderground v.1.15,2013-07-23 20:42:00,
2013-07-23 16:02:00,91.1,73.7,29.80,East,88,14.0,14.0,57,0.00,,,0.00,Wunderground v.1.15,2013-07-23 21:02:00,
2013-07-23 16:12:00,91.3,73.4,29.79,East,79,14.0,17.0,56,0.00,,,0.00,Wunderground v.1.15,2013-07-23 21:12:00,
2013-07-23 16:22:00,90.9,73.6,29.79,ENE,73,14.0,18.0,57,0.00,,,0.00,Wunderground v.1.15,2013-07-23 21:22:00,
2013-07-23 16:32:00,90.8,73.5,29.78,East,98,14.0,14.0,57,0.00,,,0.00,Wunderground v.1.15,2013-07-23 21:32:00,
2013-07-23 16:42:00,91.2,73.8,29.78,East,96,13.0,13.0,57,0.00,,,0.00,Wunderground v.1.15,2013-07-23 21:42:00,
2013-07-23 16:52:00,91.5,73.6,29.78,East,80,14.0,19.0,56,0.00,,,0.00,Wunderground v.1.15,2013-07-23 21:52:00,
2013-07-23 17:02:00,91.4,73.5,29.78,East,91,15.0,15.0,56,0.00,,,0.00,Wunderground v.1.15,2013-07-23 22:02:00,
2013-07-23 17:12:00,91.2,73.3,29.78,East,95,15.0,16.0,56,0.00,,,0.00,Wunderground v.1.15,2013-07-23 22:12:00,
2013-07-23 17:22:00,91.2,73.3,29.77,East,94,14.0,14.0,56,0.00,,,0.00,Wunderground v.1.15,2013-07-23 22:22:00,
2013-07-23 17:32:00,91.5,73.6,29.77,East,98,13.0,13.0,56,0.00,,,0.00,Wunderground v.1.15,2013-07-23 22:32:00,
2013-07-23 17:42:00,91.8,73.3,29.77,NE,53,13.0,15.0,55,0.00,,,0.00,Wunderground v.1.15,2013-07-23 22:42:00,
2013-07-23 17:52:00,91.7,73.2,29.76,East,80,13.0,13.0,55,0.00,,,0.00,Wunderground v.1.15,2013-07-23 22:52:00,
2013-07-23 18:02:00,91.2,72.2,29.76,ESE,108,15.0,15.0,54,0.00,,,0.00,Wunderground v.1.15,2013-07-23 23:02:00,
2013-07-23 18:12:00,91.3,71.8,29.75,East,94,14.0,17.0,53,0.00,,,0.00,Wunderground v.1.15,2013-07-23 23:12:00,
2013-07-23 18:22:00,91.3,72.3,29.75,East,89,13.0,13.0,54,0.00,,,0.00,Wunderground v.1.15,2013-07-23 23:22:00,
2013-07-23 18:32:00,91.2,72.8,29.74,East,98,14.0,14.0,55,0.00,,,0.00,Wunderground v.1.15,2013-07-23 23:32:00,
2013-07-23 18:42:00,90.6,72.2,29.75,ENE,77,12.0,12.0,55,0.00,,,0.00,Wunderground v.1.15,2013-07-23 23:42:00,
2013-07-23 18:52:00,89.9,72.6,29.74,SE,139,11.0,11.0,57,0.00,,,0.00,Wunderground v.1.15,2013-07-23 23:52:00,
2013-07-23 19:02:00,89.3,72.1,29.73,East,94,13.0,13.0,57,0.00,,,0.00,Wunderground v.1.15,2013-07-24 00:02:00,
2013-07-23 19:12:00,89.2,72.5,29.74,ESE,110,10.0,10.0,58,0.00,,,0.00,Wunderground v.1.15,2013-07-24 00:12:00,
2013-07-23 19:22:00,88.9,72.2,29.74,East,89,9.0,11.0,58,0.00,,,0.00,Wunderground v.1.15,2013-07-24 00:22:00,
2013-07-23 19:32:00,88.6,71.9,29.73,East,93,10.0,14.0,58,0.00,,,0.00,Wunderground v.1.15,2013-07-24 00:32:00,
2013-07-23 19:42:00,88.2,72.1,29.74,SE,130,11.0,11.0,59,0.00,,,0.00,Wunderground v.1.15,2013-07-24 00:42:00,
2013-07-23 19:52:00,87.9,71.8,29.73,East,89,9.0,10.0,59,0.00,,,0.00,Wunderground v.1.15,2013-07-24 00:52:00,
2013-07-23 20:02:00,87.5,71.4,29.73,East,98,10.0,10.0,59,0.00,,,0.00,Wunderground v.1.15,2013-07-24 01:02:00,
2013-07-23 20:12:00,87.3,71.7,29.72,ESE,103,11.0,15.0,60,0.00,,,0.00,Wunderground v.1.15,2013-07-24 01:12:00,
2013-07-23 20:22:00,87.2,71.6,29.72,East,94,13.0,13.0,60,0.00,,,0.00,Wunderground v.1.15,2013-07-24 01:22:00,
2013-07-23 20:32:00,85.4,72.7,29.73,East,85,12.0,12.0,66,0.19,,,0.02,Wunderground v.1.15,2013-07-24 01:32:00,
2013-07-23 20:52:00,79.4,71.6,29.80,North,3,9.0,9.0,77,0.07,,,0.06,Wunderground v.1.15,2013-07-24 01:52:00,
2013-07-23 21:02:00,71.9,69.1,29.81,NNE,25,23.0,23.0,91,0.16,,,0.09,Wunderground v.1.15,2013-07-24 02:02:00,
2013-07-23 21:12:00,70.5,68.7,29.81,ENE,63,16.0,16.0,94,1.17,,,0.15,Wunderground v.1.15,2013-07-24 02:12:00,
2013-07-23 21:22:00,70.4,68.9,29.81,East,84,10.0,10.0,95,0.16,,,0.20,Wunderground v.1.15,2013-07-24 02:22:00,
2013-07-23 21:32:00,70.2,69.0,29.78,ENE,70,11.0,15.0,96,0.04,,,0.20,Wunderground v.1.15,2013-07-24 02:32:00,
2013-07-23 21:42:00,69.8,68.6,29.80,East,82,13.0,16.0,96,0.00,,,0.21,Wunderground v.1.15,2013-07-24 02:42:00,
2013-07-23 21:52:00,68.8,67.6,29.79,ENE,75,10.0,10.0,96,0.00,,,0.21,Wunderground v.1.15,2013-07-24 02:52:00,
2013-07-23 22:02:00,68.5,67.3,29.81,ESE,103,6.0,6.0,96,0.00,,,0.21,Wunderground v.1.15,2013-07-24 03:02:00,
2013-07-23 22:12:00,68.6,67.4,29.84,NE,56,7.0,10.0,96,0.00,,,0.21,Wunderground v.1.15,2013-07-24 03:12:00,
2013-07-23 22:22:00,68.8,67.6,29.83,NE,52,9.0,9.0,96,0.00,,,0.21,Wunderground v.1.15,2013-07-24 03:22:00,
2013-07-23 22:32:00,68.6,67.4,29.82,East,83,7.0,8.0,96,0.00,,,0.21,Wunderground v.1.15,2013-07-24 03:32:00,
2013-07-23 22:42:00,68.3,67.1,29.85,ENE,66,7.0,8.0,96,0.00,,,0.21,Wunderground v.1.15,2013-07-24 03:42:00,
2013-07-23 22:52:00,67.8,66.6,29.86,NE,49,8.0,8.0,96,0.00,,,0.21,Wunderground v.1.15,2013-07-24 03:52:00,
2013-07-23 23:01:00,67.7,66.5,29.83,ENE,65,6.0,6.0,96,0.00,,,0.21,Wunderground v.1.15,2013-07-24 04:01:00,
2013-07-23 23:12:00,67.7,66.5,29.89,NE,49,7.0,7.0,96,0.00,,,0.21,Wunderground v.1.15,2013-07-24 04:12:00,
2013-07-23 23:22:00,67.6,66.4,29.83,ENE,72,11.0,18.0,96,0.31,,,0.26,Wunderground v.1.15,2013-07-24 04:22:00,
2013-07-23 23:32:00,68.3,67.1,29.90,North,6,11.0,12.0,96,0.05,,,0.26,Wunderground v.1.15,2013-07-24 04:32:00,
2013-07-23 23:42:00,69.7,68.8,29.88,NE,43,9.0,9.0,97,0.00,,,0.26,Wunderground v.1.15,2013-07-24 04:42:00,
2013-07-23 23:52:00,70.4,69.2,29.86,East,80,5.0,6.0,96,0.00,,,0.27,Wunderground v.1.15,2013-07-24 04:52:00,